EW5925 Weather Reports


time (UTC)temp
C
wind
direction
speed
KPH
gust
KPH
rain 1hr
cm
rain 24hr
cm
rain mn
cm
humidity
%
barometer
mb
20260905041835 27 342 3.2 14.5 0.00 0.03 0.03 60 1016.1
20260905041336 27 43 3.2 14.5 0.00 0.03 0.03 62 1016.2
20260905040831 27 6 3.2 14.5 0.00 0.03 0.03 61 1016.5
20260905040329 27 10 3.2 12.9 0.00 0.03 0.03 60 1016.5
20260905035826 27 55 3.2 11.3 0.00 0.03 0.03 60 1016.5
20260905035811 27 27 4.8 11.3 0.00 0.03 0.03 59 1016.6
20260905034826 27 24 3.2 9.7 0.00 0.03 0.03 59 1016.7
20260905034321 27 314 3.2 11.3 0.00 0.03 0.03 60 1016.7
20260905033819 27 18 3.2 11.3 0.00 0.03 0.03 59 1016.8
20260905033318 27 22 3.2 9.7 0.00 0.03 0.03 59 1016.9
20260905033010 27 38 3.2 9.7 0.00 0.03 0.03 58 1017.1
20260905032901 27 4 4.8 9.7 0.00 0.03 0.03 58 1017.1
20260905031949 27 43 3.2 9.7 0.00 0.03 0.03 60 1017.2
20260905031421 27 60 3.2 11.3 0.00 0.03 0.03 60 1017.3
20260905030635 27 66 3.2 11.3 0.00 0.03 0.03 59 1017.4
20260905030123 27 74 4.8 11.3 0.00 0.03 0.03 62 1017.5
20260905025818 26 2 4.8 14.5 0.00 0.03 0.03 61 1017.6
20260905025053 26 13 4.8 11.3 0.00 0.03 0.03 62 1017.7
20260905024528 26 54 4.8 14.5 0.00 0.03 0.03 61 1017.9
20260905023959 26 330 3.2 12.9 0.00 0.03 0.03 62 1018.1
20260905023701 26 67 4.8 12.9 0.00 0.03 0.03 63 1018.2
20260905022907 26 354 4.8 14.5 0.00 0.03 0.03 64 1018.4
20260905022344 26 347 6.4 12.9 0.00 0.03 0.03 66 1018.5
20260905021816 26 338 6.4 14.5 0.00 0.03 0.03 65 1018.7
20260905021248 26 322 4.8 14.5 0.00 0.03 0.03 66 1018.7
20260905020731 26 356 4.8 14.5 0.00 0.03 0.03 67 1018.8
20260905020245 26 6 4.8 14.5 0.00 0.03 0.03 67 1018.9
20260905015705 26 332 4.8 14.5 0.00 0.03 0.03 67 1019.0
20260905015136 26 79 6.4 17.7 0.00 0.03 0.03 67 1019.1
20260905014609 26 4 6.4 17.7 0.00 0.03 0.03 67 1019.3
20260905014040 26 18 4.8 16.1 0.00 0.03 0.03 67 1019.5
20260905013512 26 312 4.8 12.9 0.00 0.03 0.03 67 1019.5
20260905012944 26 317 4.8 11.3 0.00 0.03 0.03 68 1019.6
20260905012910 26 35 4.8 12.9 0.00 0.03 0.03 68 1019.6
20260905011854 26 358 4.8 12.9 0.00 0.03 0.03 68 1019.8
20260905011327 26 38 4.8 14.5 0.00 0.03 0.03 68 1019.8
20260905010809 26 65 6.4 14.5 0.00 0.03 0.03 68 1019.9
20260905010309 26 9 4.8 14.5 0.00 0.03 0.03 67 1020.1
20260905005807 26 16 3.2 12.9 0.00 0.03 0.03 67 1020.1
20260905005527 26 12 3.2 9.7 0.00 0.03 0.03 68 1020.1
20260905004802 26 62 3.2 8.0 0.00 0.03 0.03 69 1020.3
20260905004300 26 61 3.2 9.7 0.00 0.03 0.03 70 1020.4
20260905003802 25 0 3.2 9.7 0.00 0.03 0.03 70 1020.4
20260905003519 25 355 3.2 9.7 0.00 0.03 0.03 70 1020.6
20260905002800 25 324 3.2 8.0 0.00 0.03 0.03 71 1020.6
20260905002254 25 19 1.6 8.0 0.00 0.03 0.03 72 1020.7
20260905001752 25 358 1.6 6.4 0.00 0.03 0.03 74 1020.8
20260905001250 24 355 1.6 6.4 0.00 0.03 0.03 75 1020.8
20260905001012 24 7 1.6 8.0 0.00 0.03 0.03 75 1021.0
20260905000250 23 325 3.2 8.0 0.00 0.03 0.03 76 1021.2
20260904235750 23 320 3.2 8.0 0.00 0.03 0.03 77 1021.3
20260904235249 23 168 1.6 6.4 0.00 0.03 0.03 78 1021.2
20260904234748 23 314 3.2 8.0 0.00 0.03 0.03 79 1021.3
20260904234511 23 338 3.2 8.0 0.00 0.03 0.03 80 1021.3
20260904233749 22 351 3.2 8.0 0.00 0.03 0.03 82 1021.3
20260904233246 22 359 3.2 8.0 0.00 0.03 0.03 83 1021.3
20260904232746 21 337 1.6 6.4 0.00 0.03 0.03 84 1021.4
20260904232248 21 293 1.6 4.8 0.00 0.03 0.03 86 1021.5
20260904231740 21 293 1.6 4.8 0.00 0.03 0.03 86 1021.6
20260904231238 21 321 1.6 4.8 0.00 0.03 0.03 87 1021.6
20260904230736 21 316 1.6 4.8 0.00 0.03 0.03 88 1021.6
20260904230238 20 314 0.0 3.2 0.00 0.03 0.03 88 1021.6
20260904225721 20 314 1.6 3.2 0.00 0.03 0.03 89 1021.6
20260904225711 20 314 1.6 4.8 0.00 0.03 0.03 90 1021.6
20260904224718 19 314 1.6 4.8 0.00 0.03 0.03 91 1021.6
20260904224218 19 222 0.0 3.2 0.00 0.03 0.03 92 1021.5
20260904223718 18 219 0.0 3.2 0.00 0.03 0.03 93 1021.5
20260904223216 18 218 0.0 6.4 0.00 0.03 0.03 94 1021.5
20260904222715 17 215 0.0 6.4 0.00 0.03 0.03 95 1021.5
20260904222212 17 215 1.6 6.4 0.00 0.03 0.03 95 1021.6
20260904221926 17 215 3.2 6.4 0.00 0.03 0.03 95 1021.6
20260904221206 16 192 3.2 4.8 0.00 0.03 0.03 95 1021.6
20260904221145 16 223 1.6 4.8 0.00 0.03 0.03 95 1021.6
20260904220200 16 223 1.6 6.4 0.00 0.03 0.03 95 1021.6
20260904215700 16 222 1.6 6.4 0.00 0.03 0.03 95 1021.6
20260904215200 16 228 1.6 6.4 0.00 0.03 0.03 95 1021.6
20260904214920 16 180 1.6 6.4 0.00 0.03 0.03 94 1021.5
20260904214146 15 180 1.6 8.0 0.00 0.03 0.03 95 1021.6
20260904213646 15 175 1.6 8.0 0.00 0.03 0.03 95 1021.5
20260904213132 15 160 1.6 4.8 0.00 0.03 0.03 94 1021.4
20260904212632 15 160 1.6 4.8 0.00 0.03 0.03 95 1021.4
20260904212130 15 159 0.0 3.2 0.00 0.03 0.03 94 1021.4
20260904211628 15 159 0.0 3.2 0.00 0.03 0.03 94 1021.3
20260904211126 14 159 0.0 3.2 0.00 0.03 0.03 94 1021.2
20260904210624 14 159 0.0 6.4 0.00 0.03 0.03 94 1021.2
20260904210124 14 159 0.0 6.4 0.00 0.03 0.03 94 1021.2
20260904205850 13 158 0.0 1.6 0.00 0.03 0.03 94 1021.1
20260904205123 13 158 0.0 1.6 0.00 0.03 0.03 93 1021.0
20260904204845 13 158 0.0 1.6 0.00 0.03 0.03 93 1021.0
20260904204349 13 158 0.0 3.2 0.00 0.03 0.03 93 1021.0
20260904203616 13 158 0.0 3.2 0.00 0.03 0.03 93 1021.0
20260904203114 13 158 0.0 0.0 0.00 0.03 0.03 93 1020.9
20260904202612 13 158 0.0 1.6 0.00 0.03 0.03 93 1020.9
20260904202114 13 158 0.0 1.6 0.00 0.03 0.03 93 1020.9
20260904201837 13 158 0.0 3.2 0.00 0.03 0.03 92 1020.8
20260904201104 13 158 0.0 3.2 0.00 0.03 0.03 92 1020.7
20260904200602 13 158 0.0 3.2 0.00 0.03 0.03 92 1020.6
20260904200108 13 158 0.0 3.2 0.00 0.03 0.03 92 1020.5
20260904195825 13 158 0.0 1.6 0.00 0.03 0.03 92 1020.5
20260904195058 13 158 0.0 1.6 0.00 0.03 0.03 92 1020.5
20260904194555 13 158 0.0 1.6 0.00 0.03 0.03 92 1020.4
20260904194052 13 158 0.0 1.6 0.00 0.03 0.03 92 1020.4
20260904193545 13 158 0.0 1.6 0.00 0.03 0.03 92 1020.3
20260904193045 13 158 0.0 1.6 0.00 0.03 0.03 92 1020.3
20260904192543 13 158 0.0 1.6 0.00 0.03 0.03 92 1020.3
20260904192040 13 158 0.0 1.6 0.00 0.03 0.03 91 1020.3
20260904191538 13 158 0.0 1.6 0.00 0.03 0.03 91 1020.2
20260904191036 13 158 0.0 1.6 0.00 0.03 0.03 91 1020.2
20260904190759 13 158 0.0 1.6 0.00 0.05 0.03 91 1020.2
20260904190010 13 158 0.0 0.0 0.00 0.05 0.03 91 1020.2
20260904185449 13 158 0.0 1.6 0.00 0.05 0.03 91 1020.1
20260904184951 13 158 0.0 1.6 0.00 0.05 0.03 91 1020.1
20260904184445 13 158 0.0 1.6 0.00 0.05 0.03 91 1020.1
20260904183945 14 158 0.0 1.6 0.00 0.05 0.03 91 1020.0
20260904183713 14 158 0.0 1.6 0.00 0.05 0.03 91 1020.0
20260904183204 14 158 0.0 1.6 0.00 0.05 0.03 91 1020.0
20260904182444 14 158 0.0 1.6 0.00 0.05 0.03 91 1020.0
20260904182213 14 158 0.0 0.0 0.00 0.05 0.03 91 1020.0
20260904181441 14 158 0.0 0.0 0.03 0.05 0.03 91 1020.1
20260904180940 14 158 0.0 0.0 0.03 0.05 0.03 91 1020.1
20260904180438 14 158 0.0 0.0 0.03 0.05 0.03 91 1020.0
20260904175938 14 158 0.0 0.0 0.03 0.05 0.03 91 1020.0
20260904175433 14 158 0.0 0.0 0.03 0.05 0.03 91 1020.0
20260904174932 15 158 0.0 0.0 0.03 0.05 0.03 91 1020.0
20260904174426 15 158 0.0 0.0 0.03 0.05 0.03 91 1019.9
20260904173924 15 158 0.0 1.6 0.03 0.05 0.03 91 1019.8
20260904173421 15 158 0.0 1.6 0.03 0.05 0.03 91 1019.8
20260904172924 15 158 0.0 0.0 0.03 0.05 0.03 91 1019.9
20260904172358 15 158 0.0 0.0 0.03 0.05 0.03 91 1019.9
20260904171827 15 158 0.0 0.0 0.00 0.03 0.00 91 1019.9
20260904171329 15 158 0.0 0.0 0.00 0.03 0.00 91 1019.9
20260904170823 15 158 0.0 0.0 0.00 0.03 0.00 91 1019.9
20260904170323 15 158 0.0 0.0 0.00 0.03 0.00 90 1019.9
20260904165816 15 158 0.0 0.0 0.00 0.03 0.00 90 1019.9
20260904165318 15 158 0.0 0.0 0.00 0.03 0.00 90 1019.9
20260904164812 15 158 0.0 0.0 0.00 0.03 0.00 90 1019.9
20260904164312 15 158 0.0 0.0 0.00 0.03 0.00 90 1020.0
20260904164030 16 158 0.0 0.0 0.00 0.03 0.00 90 1020.0
20260904163309 16 158 0.0 0.0 0.00 0.03 0.00 90 1020.0
20260904162805 16 158 0.0 0.0 0.00 0.03 0.00 90 1020.0
20260904162531 16 158 0.0 0.0 0.00 0.03 0.00 90 1020.0
20260904161800 16 158 0.0 0.0 0.00 0.03 0.00 90 1019.9
20260904161301 16 158 0.0 0.0 0.00 0.03 0.00 90 1020.0
20260904160755 16 158 0.0 0.0 0.00 0.03 0.00 90 1020.0
20260904160311 16 158 0.0 0.0 0.00 0.03 0.00 90 1020.0
20260904155731 16 158 0.0 0.0 0.00 0.03 0.00 90 1020.0
20260904155211 16 158 0.0 0.0 0.00 0.03 0.00 90 1019.9
20260904154713 16 158 0.0 0.0 0.00 0.03 0.00 90 1020.0
20260904154147 16 158 0.0 0.0 0.00 0.03 0.00 90 1020.0
20260904153621 16 158 0.0 1.6 0.00 0.03 0.00 90 1019.9
20260904153107 17 158 0.0 1.6 0.00 0.03 0.00 90 1019.9
20260904152526 17 158 0.0 0.0 0.00 0.03 0.00 90 1019.9
20260904152001 17 158 0.0 1.6 0.00 0.03 0.00 90 1019.9
20260904151435 17 158 0.0 1.6 0.00 0.03 0.00 90 1020.0
20260904150909 17 158 0.0 0.0 0.00 0.03 0.00 90 1020.0
20260904150412 17 158 0.0 0.0 0.00 0.03 0.00 90 1020.0
20260904145858 17 158 0.0 0.0 0.00 0.03 0.00 90 1020.0
20260904145357 17 158 0.0 0.0 0.00 0.03 0.00 90 1020.0
20260904145110 17 158 0.0 0.0 0.00 0.03 0.00 90 1020.0
20260904144353 17 158 0.0 0.0 0.00 0.03 0.00 91 1020.0
20260904143852 17 158 0.0 1.6 0.00 0.03 0.00 91 1020.0
20260904143349 17 158 0.0 1.6 0.00 0.03 0.00 91 1019.9
20260904143111 17 158 0.0 1.6 0.00 0.03 0.00 91 1019.9
20260904142346 17 158 0.0 4.8 0.00 0.03 0.00 90 1019.9
20260904141843 17 158 1.6 4.8 0.00 0.03 0.00 90 1019.9
20260904141344 18 158 1.6 3.2 0.00 0.03 0.00 90 1019.9
20260904140841 18 158 0.0 3.2 0.00 0.03 0.00 90 1019.8
20260904140339 18 158 0.0 1.6 0.00 0.03 0.00 91 1019.8
20260904135836 18 158 0.0 1.6 0.00 0.03 0.03 91 1019.9
20260904135338 18 158 0.0 1.6 0.00 0.03 0.03 91 1019.8
20260904134825 18 158 1.6 4.8 0.00 0.03 0.03 91 1019.8
20260904134323 18 158 1.6 4.8 0.00 0.03 0.03 91 1019.8
20260904133824 18 155 1.6 4.8 0.00 0.03 0.03 91 1019.8
20260904133322 18 145 0.0 4.8 0.00 0.03 0.03 91 1019.8
20260904132822 18 138 1.6 6.4 0.00 0.03 0.03 91 1019.7
20260904132316 18 138 3.2 6.4 0.00 0.03 0.03 91 1019.7
20260904131816 18 151 1.6 6.4 0.00 0.03 0.03 91 1019.7
20260904131538 18 142 1.6 4.8 0.00 0.03 0.03 91 1019.8
20260904130814 18 193 1.6 4.8 0.00 0.03 0.03 91 1019.8
20260904130533 18 197 1.6 4.8 0.00 0.03 0.03 91 1019.7
20260904125806 18 165 1.6 4.8 0.00 0.03 0.03 91 1019.8
20260904125521 18 132 1.6 4.8 0.00 0.03 0.03 91 1019.7
20260904124804 18 135 1.6 4.8 0.00 0.03 0.03 91 1019.7
20260904124306 18 153 1.6 4.8 0.00 0.03 0.03 91 1019.8
20260904123740 18 124 1.6 4.8 0.00 0.03 0.03 91 1019.7
20260904123231 18 154 1.6 8.0 0.00 0.03 0.03 91 1019.8
20260904122731 18 185 3.2 8.0 0.00 0.03 0.03 91 1019.8
20260904122227 18 129 3.2 6.4 0.00 0.03 0.03 91 1019.9
20260904121726 18 185 3.2 9.7 0.00 0.03 0.03 91 1019.8
20260904121238 18 125 3.2 11.3 0.00 0.03 0.03 91 1019.8
20260904120724 18 157 3.2 11.3 0.00 0.03 0.03 91 1019.9
20260904120224 18 165 3.2 11.3 0.00 0.03 0.03 91 1019.9
20260904115942 19 140 3.2 11.3 0.00 0.03 0.03 91 1019.9
20260904115216 19 127 3.2 11.3 0.00 0.03 0.03 90 1020.0
20260904114715 19 125 3.2 11.3 0.00 0.03 0.03 90 1019.9
20260904114213 19 137 3.2 8.0 0.00 0.03 0.03 90 1019.9
20260904113712 19 124 3.2 8.0 0.00 0.03 0.03 90 1020.0
20260904113214 19 117 3.2 9.7 0.00 0.03 0.03 90 1020.0
20260904112911 19 126 3.2 8.0 0.00 0.03 0.03 90 1019.9
20260904112124 19 127 3.2 6.4 0.00 0.03 0.03 90 1019.9
20260904111555 19 117 3.2 8.0 0.00 0.03 0.03 90 1019.9
20260904111031 19 115 3.2 8.0 0.00 0.03 0.03 90 1019.9
20260904110901 20 116 3.2 8.0 0.00 0.03 0.03 89 1019.8
20260904110524 19 142 3.2 8.0 0.00 0.03 0.03 89 1019.9
20260904105410 20 114 3.2 8.0 0.00 0.03 0.03 89 1019.7
20260904104847 20 116 1.6 4.8 0.00 0.03 0.03 89 1019.7
20260904104320 20 116 1.6 4.8 0.00 0.03 0.03 89 1019.7
20260904103753 20 116 3.2 8.0 0.00 0.03 0.03 89 1019.7
20260904103443 20 116 3.2 8.0 0.00 0.03 0.03 88 1019.6
20260904102657 20 114 3.2 8.0 0.00 0.03 0.03 88 1019.6
20260904102353 20 121 3.2 9.7 0.00 0.03 0.03 88 1019.6
20260904101608 20 112 3.2 9.7 0.00 0.03 0.03 88 1019.5
20260904101327 20 114 3.2 8.0 0.00 0.03 0.03 88 1019.5
20260904100606 20 116 3.2 8.0 0.00 0.03 0.03 87 1019.4
20260904100111 20 125 1.6 4.8 0.00 0.03 0.03 87 1019.3
20260904095603 21 125 1.6 4.8 0.00 0.03 0.03 87 1019.4
20260904095102 21 129 1.6 4.8 0.00 0.03 0.03 87 1019.3
20260904094558 21 129 1.6 4.8 0.00 0.03 0.03 87 1019.3
20260904094058 21 112 0.0 4.8 0.00 0.03 0.03 87 1019.2
20260904093559 21 112 1.6 4.8 0.00 0.03 0.03 86 1019.2
20260904093057 21 112 1.6 4.8 0.00 0.03 0.03 86 1019.2
20260904092555 21 112 1.6 4.8 0.00 0.03 0.03 86 1019.1
20260904092317 21 112 1.6 4.8 0.00 0.03 0.03 86 1019.1
20260904091814 21 112 1.6 3.2 0.00 0.03 0.03 86 1019.1
20260904091051 21 112 0.0 3.2 0.00 0.03 0.03 86 1018.9
20260904090817 21 112 0.0 3.2 0.00 0.03 0.03 85 1018.9
20260904090104 21 112 0.0 1.6 0.00 0.03 0.03 85 1018.9
20260904085546 21 112 0.0 4.8 0.00 0.03 0.03 85 1018.8
20260904085306 21 112 1.6 4.8 0.00 0.03 0.03 85 1018.7
20260904084542 21 112 1.6 4.8 0.00 0.03 0.03 85 1018.7
20260904084303 21 112 1.6 4.8 0.00 0.03 0.03 85 1018.7
20260904083515 21 112 1.6 4.8 0.00 0.03 0.03 85 1018.7
20260904083015 22 114 1.6 6.4 0.00 0.03 0.03 85 1018.6
20260904082510 22 114 1.6 6.4 0.00 0.03 0.03 84 1018.7
20260904082008 22 109 1.6 6.4 0.00 0.03 0.03 84 1018.5
20260904081519 22 116 1.6 8.0 0.00 0.03 0.03 83 1018.5
20260904081006 22 116 1.6 8.0 0.00 0.03 0.03 83 1018.5
20260904080730 22 116 1.6 8.0 0.00 0.03 0.03 83 1018.4
20260904080008 22 116 1.6 8.0 0.00 0.03 0.03 82 1018.3
20260904075507 22 115 1.6 11.3 0.00 0.03 0.03 82 1018.2
20260904075005 22 143 3.2 11.3 0.00 0.03 0.03 81 1018.2
20260904074727 22 124 3.2 11.3 0.00 0.03 0.03 81 1018.0
20260904073957 22 120 3.2 11.3 0.00 0.03 0.03 80 1017.9
20260904073728 22 115 3.2 11.3 0.00 0.03 0.03 79 1017.9
20260904072953 23 132 4.8 11.3 0.00 0.03 0.03 79 1017.9
20260904072449 23 122 4.8 11.3 0.00 0.03 0.03 78 1017.8
20260904071947 23 116 4.8 12.9 0.00 0.03 0.03 77 1017.8
20260904071449 23 123 4.8 14.5 0.00 0.03 0.03 76 1017.8
20260904070945 23 131 3.2 14.5 0.00 0.03 0.03 75 1017.8
20260904070445 23 125 3.2 11.3 0.00 0.03 0.03 74 1017.7
20260904065945 23 104 3.2 11.3 0.00 0.03 0.03 73 1017.7
20260904065443 24 122 3.2 11.3 0.00 0.03 0.03 72 1017.5
20260904065210 24 114 4.8 11.3 0.00 0.03 0.03 72 1017.5
20260904064457 24 114 3.2 11.3 0.00 0.03 0.03 71 1017.5
20260904063938 24 114 3.2 20.9 0.00 0.03 0.03 70 1017.5
20260904063435 25 94 4.8 20.9 0.00 0.03 0.03 68 1017.4
20260904063417 25 128 4.8 20.9 0.00 0.03 0.03 67 1017.4
20260904062431 25 114 3.2 20.9 0.00 0.03 0.03 65 1017.3
20260904061931 25 116 3.2 8.0 0.00 0.03 0.03 65 1017.3
20260904061431 26 67 3.2 9.7 0.00 0.03 0.03 64 1017.2
20260904060933 26 118 4.8 12.9 0.00 0.03 0.03 62 1017.1
20260904060417 26 110 3.2 14.5 0.00 0.03 0.03 62 1017.0
20260904055915 26 111 3.2 14.5 0.00 0.03 0.03 61 1017.0
20260904055409 26 112 4.8 19.3 0.00 0.03 0.03 60 1017.0
20260904055131 27 107 4.8 19.3 0.00 0.03 0.03 58 1017.0
20260904054405 27 139 4.8 17.7 0.00 0.03 0.03 57 1017.0
20260904054124 27 120 4.8 17.7 0.00 0.03 0.03 57 1017.0
20260904053632 27 114 6.4 17.7 0.00 0.03 0.03 54 1016.9
20260904052903 28 110 6.4 16.1 0.00 0.03 0.03 54 1016.9
20260904052623 28 124 4.8 16.1 0.00 0.03 0.03 54 1016.8
20260904051900 28 131 4.8 16.1 0.00 0.03 0.03 53 1016.9
20260904051401 28 122 4.8 14.5 0.00 0.03 0.03 52 1016.8
20260904050903 28 92 4.8 17.7 0.00 0.03 0.03 49 1016.8
20260904050341 29 124 4.8 17.7 0.00 0.03 0.03 46 1016.8
20260904050106 29 109 3.2 14.5 0.00 0.03 0.03 46 1016.7
20260904045327 29 114 3.2 14.5 0.00 0.03 0.03 46 1016.8
20260904045042 29 126 6.4 17.7 0.00 0.03 0.03 46 1016.8
20260904044318 30 118 4.8 17.7 0.00 0.03 0.03 45 1016.8
20260904043820 30 129 4.8 17.7 0.00 0.03 0.03 43 1016.8
20260904043319 30 66 4.8 17.7 0.00 0.03 0.03 41 1016.9
20260904042816 30 121 3.2 12.9 0.00 0.03 0.03 40 1016.8